Home > Weather > Thessaloniki > Past weeks

Flag for Greece Past Weather in Thessaloniki, Greece — Yesterday and Last 2 Weeks

Now
86 °F

Passing clouds.


Feels Like: 85 °F
Forecast: 67 / 96 °F
Wind: 13 mph from Northwest

Location: Thessaloniki Airport

Current Time: Jun 26, 2016 at 11:12:02 AM

Latest Report: Jun 26, 2016 at 10:50 AM


Visibility: N/A

Pressure: 29.86 "Hg

Humidity: 40%

Dew Point: 59 °F

Location of ThessalonikiLocation

Past Weather in Thessaloniki — Graph

°F

Thessaloniki Temperature Yesterday

Maximum temperature yesterday: 97 °F (at 2:50 PM)
Minimum temperature yesterday: 73 °F (at 5:20 AM)
Average temperature yesterday: 86 °F

High & Low Weather Summary for the Past Weeks

 TemperatureHumidityPressure
High100 °F (Jun 23, 1:50 PM)100% (Jun 13, 10:50 AM)30.07 "Hg (Jun 13, 10:50 AM)
Low61 °F (Jun 12, 5:20 AM)16% (Jun 16, 6:50 PM)29.53 "Hg (Jun 13, 5:20 PM)
Average80 °F51%29.88 "Hg
* Reported Jun 11 9:20 AM — Jun 26 9:50 AM, Thessaloniki, Weather by CustomWeather, © 2016

Note: Actual official high and low records may vary slightly from our data, if they occured in-between our weather recording intervals... More about our weather records

Advertising

Thessaloniki Weather History for the Previous 24 Hours

Scroll right to see more
 ConditionsComfort  
Time TempWeatherWind HumidityBarometerVisibility
9:50 AM
Sun, Jun 26
84 °FPassing clouds.15 mph37%29.83 "HgN/A
9:20 AM84 °FPassing clouds.6 mph35%29.83 "HgN/A
8:50 AM82 °FScattered clouds.15 mph48%29.83 "HgN/A
8:20 AM82 °FBroken clouds.16 mph37%29.80 "HgN/A
7:50 AM77 °FDrizzle. Broken clouds.13 mph44%29.83 "HgN/A
7:20 AM73 °FScattered clouds.3 mph53%29.86 "HgN/A
6:50 AM72 °FPassing clouds.3 mph57%29.86 "HgN/A
6:20 AM72 °FPassing clouds.3 mph57%29.86 "HgN/A
5:50 AM72 °FPassing clouds.3 mph57%29.86 "HgN/A
5:20 AM72 °FPassing clouds.2 mph61%29.86 "HgN/A
4:50 AM73 °FPassing clouds.3 mph53%29.86 "HgN/A
4:20 AM73 °FPassing clouds.3 mph57%29.83 "HgN/A
3:50 AM75 °FPassing clouds.3 mph54%29.83 "HgN/A
3:20 AM75 °FPassing clouds.2 mph50%29.83 "HgN/A
2:50 AM75 °FPassing clouds.No wind50%29.86 "HgN/A
2:20 AM79 °FPassing clouds.3 mph42%29.83 "HgN/A
1:50 AM79 °FPassing clouds.2 mph45%29.86 "HgN/A
1:20 AM81 °FPassing clouds.5 mph39%29.86 "HgN/A
12:50 AM82 °FPassing clouds.8 mph37%29.86 "HgN/A
12:20 AM82 °FPassing clouds.9 mph40%29.86 "HgN/A
11:50 PM
Sat, Jun 25
82 °FPassing clouds.2 mph51%29.86 "HgN/A
11:20 PM81 °FPassing clouds.3 mph58%29.83 "HgN/A
10:50 PM82 °FPassing clouds.5 mph58%29.83 "HgN/A
10:20 PM82 °FPassing clouds.2 mph51%29.83 "HgN/A
9:50 PM82 °FPassing clouds.2 mph55%29.83 "HgN/A
9:20 PM84 °FPassing clouds.2 mph45%29.83 "HgN/A
8:50 PM86 °FPassing clouds.5 mph40%29.80 "HgN/A
8:20 PM88 °FPassing clouds.6 mph35%29.80 "HgN/A
7:50 PM90 °FPassing clouds.7 mph31%29.80 "HgN/A
7:20 PM90 °FPassing clouds.9 mph31%29.80 "HgN/A
6:50 PM91 °FPassing clouds.9 mph28%29.80 "HgN/A
6:20 PM91 °FPassing clouds.12 mph28%29.80 "HgN/A
5:50 PM91 °FScattered clouds.13 mph28%29.80 "HgN/A
5:20 PM93 °FScattered clouds.12 mph26%29.83 "HgN/A
4:50 PM93 °FScattered clouds.12 mph34%29.83 "HgN/A
4:20 PM93 °FScattered clouds.15 mph28%29.80 "HgN/A
3:50 PM95 °FScattered clouds.13 mph26%29.83 "HgN/A
3:20 PM97 °FScattered clouds.12 mph19%29.83 "HgN/A
2:50 PM97 °FPassing clouds.10 mph19%29.83 "HgN/A
2:20 PM95 °FPassing clouds.13 mph22%29.83 "HgN/A
1:50 PM95 °FPassing clouds.12 mph22%29.86 "HgN/A
1:20 PM95 °FPassing clouds.13 mph22%29.86 "HgN/A
12:50 PM93 °FPassing clouds.13 mph23%29.89 "HgN/A
12:20 PM93 °FPassing clouds.12 mph26%29.89 "HgN/A
11:50 AM90 °FPassing clouds.9 mph31%29.89 "HgN/A
11:20 AM88 °FPassing clouds.8 mph40%29.89 "HgN/A
Weather by CustomWeather, © 2016

See weather overviewHow to use our weather pages